Volver al catálogo

STARLINK-31883

ActivoComunicacionesVLEO
NORAD 60020·PAYLOAD·🇺🇸 United States

Lanzado Jun 8, 2024 desde Cape Canaveral Space Force Station

Loading…

Próximos Pases (próximas 24 horas)

TLE

ActualizadoSource: CelesTrak SupGP

Época: Sep 14, 2026, 22:25 UTC

1 60020C 24111E   26257.93451389  .00046910  00000+0  13862-2 0  2579
2 60020  53.1583 275.9526 0001218  88.5324  29.8536 15.34362692    18

Sigue STARLINK-31883 en tiempo real con AllMySat

Download on the App Store